Location: Narrabri
(30.3170°S, 149.7830°E)
Time: 15:54:02
(UTC+11:00)

Envisat - Pass Details

Date: 13 October 2017
Orbit: 764 x 766 km, 98.2° (Epoch: 20 October)

Event Time Altitude Azimuth Distance (km) Brightness Sun altitude
Rises 20:28:06 0° 147° (SSE) 3,260 6.1 -17.2°
Reaches altitude 10° 20:31:07 10° 129° (SE) 2,324 5.2 -17.8°
Enters shadow 20:31:28 11° 126° (SE) 2,233 5.1 -17.9°
